| time (UTC) | temp C | wind direction | speed KPH | gust KPH | rain 1hr cm | rain 24hr cm | rain mn cm | humidity % | barometer mb |
| 20260831193051 | 32 | 360 | 3.2 | 17.7 | 0.00 | 0.00 | 0.00 | 16 | 1014.1 |
| 20260831191545 | 32 | 231 | 6.4 | 22.5 | 0.00 | 0.00 | 0.00 | 24 | 1014.5 |
| 20260831190045 | 32 | 201 | 4.8 | 19.3 | 0.00 | 0.00 | 0.00 | 23 | 1014.5 |
| 20260831184538 | 32 | 221 | 4.8 | 17.7 | 0.00 | 0.00 | 0.00 | 16 | 1014.6 |
| 20260831183033 | 32 | 216 | 6.4 | 20.9 | 0.00 | 0.00 | 0.00 | 17 | 1014.5 |
| 20260831181528 | 32 | 205 | 4.8 | 12.9 | 0.00 | 0.00 | 0.00 | 9 | 1014.6 |
| 20260831180026 | 31 | 225 | 4.8 | 19.3 | 0.00 | 0.00 | 0.00 | 1 | 1014.8 |
| 20260831174520 | 31 | 217 | 4.8 | 27.4 | 0.00 | 0.00 | 0.00 | 4 | 1014.9 |
| 20260831173015 | 30 | 171 | 3.2 | 17.7 | 0.00 | 0.00 | 0.00 | 100 | 1015.1 |
| 20260831171511 | 29 | 188 | 4.8 | 20.9 | 0.00 | 0.00 | 0.00 | 100 | 1015.2 |
| 20260831170008 | 28 | 179 | 4.8 | 16.1 | 0.00 | 0.00 | 0.00 | 100 | 1015.3 |
| 20260831164502 | 28 | 170 | 4.8 | 14.5 | 0.00 | 0.00 | 0.00 | 100 | 1015.6 |
| 20260831163103 | 27 | 165 | 3.2 | 17.7 | 0.00 | 0.00 | 0.00 | 100 | 1015.8 |
| 20260831161553 | 26 | 180 | 1.6 | 12.9 | 0.00 | 0.00 | 0.00 | 100 | 1016.0 |
| 20260831160049 | 26 | 184 | 1.6 | 12.9 | 0.00 | 0.00 | 0.00 | 100 | 1015.8 |
| 20260831154545 | 25 | 186 | 3.2 | 19.3 | 0.00 | 0.00 | 0.00 | 100 | 1015.9 |
| 20260831153040 | 24 | 164 | 3.2 | 11.3 | 0.00 | 0.00 | 0.00 | 100 | 1016.0 |
| 20260831151538 | 23 | 165 | 6.4 | 9.7 | 0.00 | 0.00 | 0.00 | 100 | 1016.2 |
| 20260831150032 | -17 | 0.0 | 0.0 | 0.00 | 0.00 | 0.00 | 1016.2 | ||
| 20260831144527 | -17 | 0.0 | 0.0 | 0.00 | 0.00 | 0.00 | 1016.1 | ||
| 20260831143023 | -17 | 0.0 | 0.0 | 0.00 | 0.00 | 0.00 | 1016.0 | ||
| 20260831141519 | -17 | 0.0 | 0.0 | 0.00 | 0.00 | 0.00 | 1015.8 | ||
| 20260831140016 | -17 | 0.0 | 0.0 | 0.00 | 0.00 | 0.00 | 1016.1 | ||
| 20260831134510 | -17 | 0.0 | 0.0 | 0.00 | 0.00 | 0.00 | 1016.0 | ||
| 20260831133006 | -17 | 0.0 | 0.0 | 0.00 | 0.00 | 0.00 | 1016.1 | ||
| 20260831131604 | -17 | 0.0 | 0.0 | 0.00 | 0.00 | 0.00 | 1016.0 | ||
| 20260831130110 | -17 | 0.0 | 0.0 | 0.00 | 0.00 | 0.00 | 1016.1 | ||
| 20260831124551 | 22 | 176 | 0.0 | 4.8 | 0.00 | 0.00 | 0.00 | 100 | 1016.1 |
| 20260831123047 | 23 | 215 | 0.0 | 0.0 | 0.00 | 0.00 | 0.00 | 100 | 1016.2 |
| 20260831121542 | 23 | 217 | 0.0 | 6.4 | 0.00 | 0.00 | 0.00 | 100 | 1016.1 |
| 20260831120038 | 23 | 219 | 0.0 | 9.7 | 0.00 | 0.00 | 0.00 | 100 | 1015.3 |
| 20260831114534 | 22 | 206 | 0.0 | 8.0 | 0.00 | 0.00 | 0.00 | 100 | 1015.1 |
| 20260831113029 | 22 | 215 | 1.6 | 9.7 | 0.00 | 0.00 | 0.00 | 100 | 1015.0 |
| 20260831111525 | 22 | 225 | 1.6 | 11.3 | 0.00 | 0.00 | 0.00 | 100 | 1014.9 |
| 20260831110021 | 23 | 198 | 1.6 | 8.0 | 0.00 | 0.00 | 0.00 | 100 | 1015.0 |
| 20260831104516 | 23 | 208 | 0.0 | 9.7 | 0.00 | 0.00 | 0.00 | 100 | 1015.2 |
| 20260831103012 | 23 | 197 | 0.0 | 0.0 | 0.00 | 0.00 | 0.00 | 100 | 1015.3 |
| 20260831101507 | 23 | 219 | 0.0 | 9.7 | 0.00 | 0.00 | 0.00 | 100 | 1015.3 |
| 20260831100003 | 23 | 209 | 0.0 | 8.0 | 0.00 | 0.00 | 0.00 | 100 | 1015.0 |
| 20260831094559 | 23 | 203 | 0.0 | 9.7 | 0.00 | 0.00 | 0.00 | 100 | 1014.9 |
| 20260831093054 | 23 | 182 | 1.6 | 11.3 | 0.00 | 0.00 | 0.00 | 100 | 1015.0 |
| 20260831091558 | 23 | 210 | 0.0 | 9.7 | 0.00 | 0.00 | 0.00 | 100 | 1015.1 |
| 20260831090045 | 23 | 206 | 0.0 | 8.0 | 0.00 | 0.00 | 0.00 | 100 | 1015.1 |
| 20260831084540 | 24 | 190 | 0.0 | 9.7 | 0.00 | 0.00 | 0.00 | 100 | 1015.1 |
| 20260831083040 | 24 | 200 | 0.0 | 9.7 | 0.00 | 0.00 | 0.00 | 100 | 1015.1 |
| 20260831081536 | 24 | 205 | 0.0 | 6.4 | 0.00 | 0.00 | 0.00 | 100 | 1015.0 |
| 20260831080028 | 24 | 211 | 0.0 | 11.3 | 0.00 | 0.00 | 0.00 | 100 | 1015.1 |
| 20260831074523 | 24 | 232 | 0.0 | 6.4 | 0.00 | 0.00 | 0.00 | 100 | 1015.2 |
| 20260831073019 | 25 | 225 | 0.0 | 8.0 | 0.00 | 0.00 | 0.00 | 100 | 1015.2 |
| 20260831071514 | 25 | 227 | 0.0 | 9.7 | 0.00 | 0.00 | 0.00 | 100 | 1015.5 |
| 20260831070023 | 25 | 217 | 0.0 | 8.0 | 0.00 | 0.00 | 0.00 | 100 | 1015.3 |
| 20260831064506 | 25 | 230 | 0.0 | 12.9 | 0.00 | 0.00 | 0.00 | 100 | 1015.5 |
| 20260831063001 | 25 | 207 | 1.6 | 12.9 | 0.00 | 0.00 | 0.00 | 100 | 1015.4 |
| 20260831061557 | 25 | 225 | 3.2 | 11.3 | 0.00 | 0.00 | 0.00 | 100 | 1015.3 |
| 20260831060059 | 25 | 208 | 4.8 | 12.9 | 0.00 | 0.00 | 0.00 | 100 | 1015.4 |
| 20260831054548 | 25 | 222 | 3.2 | 14.5 | 0.00 | 0.00 | 0.00 | 100 | 1015.3 |
| 20260831053046 | 25 | 208 | 1.6 | 9.7 | 0.00 | 0.00 | 0.00 | 100 | 1015.4 |
| 20260831051549 | 25 | 188 | 0.0 | 9.7 | 0.00 | 0.00 | 0.00 | 100 | 1015.5 |
| 20260831050035 | 25 | 202 | 1.6 | 11.3 | 0.00 | 0.00 | 0.00 | 100 | 1015.6 |
| 20260831044530 | 25 | 213 | 0.0 | 0.0 | 0.00 | 0.00 | 0.00 | 100 | 1015.7 |
| 20260831043026 | 24 | 190 | 0.0 | 0.0 | 0.00 | 0.00 | 0.00 | 100 | 1015.8 |
| 20260831041554 | 24 | 187 | 0.0 | 0.0 | 0.00 | 0.00 | 0.00 | 100 | 1016.0 |
| 20260831040018 | 24 | 187 | 0.0 | 0.0 | 0.00 | 0.00 | 0.00 | 100 | 1016.2 |
| 20260831034513 | 24 | 186 | 0.0 | 0.0 | 0.00 | 0.00 | 0.00 | 100 | 1016.2 |
| 20260831033009 | 23 | 186 | 0.0 | 0.0 | 0.00 | 0.00 | 0.00 | 100 | 1016.5 |
| 20260831031507 | 23 | 186 | 0.0 | 0.0 | 0.00 | 0.00 | 0.00 | 100 | 1016.7 |
| 20260831030108 | 23 | 182 | 0.0 | 0.0 | 0.00 | 0.00 | 0.00 | 100 | 1017.1 |
| 20260831024617 | 23 | 182 | 0.0 | 0.0 | 0.00 | 0.00 | 0.00 | 100 | 1016.7 |
| 20260831023052 | 23 | 184 | 0.0 | 0.0 | 0.00 | 0.00 | 0.00 | 100 | 1016.8 |
| 20260831021552 | 23 | 184 | 0.0 | 0.0 | 0.00 | 0.00 | 0.00 | 100 | 1016.7 |
| 20260831020043 | 23 | 184 | 0.0 | 0.0 | 0.00 | 0.00 | 0.00 | 100 | 1017.0 |
| 20260831014538 | 24 | 188 | 0.0 | 0.0 | 0.00 | 0.00 | 0.00 | 100 | 1017.2 |
| 20260831013034 | 24 | 192 | 0.0 | 0.0 | 0.00 | 0.00 | 0.00 | 100 | 1017.0 |
| 20260831011543 | 24 | 182 | 0.0 | 0.0 | 0.00 | 0.00 | 0.00 | 100 | 1016.3 |
| 20260831010029 | 24 | 194 | 0.0 | 0.0 | 0.00 | 0.00 | 0.00 | 100 | 1016.8 |
| 20260831004521 | 24 | 186 | 0.0 | 0.0 | 0.00 | 0.00 | 0.00 | 100 | 1016.5 |
| 20260831003017 | 24 | 171 | 0.0 | 0.0 | 0.00 | 0.00 | 0.00 | 100 | 1016.1 |
| 20260831001512 | 24 | 176 | 0.0 | 4.8 | 0.00 | 0.00 | 0.00 | 100 | 1016.0 |
| 20260831000008 | 24 | 192 | 0.0 | 0.0 | 0.00 | 0.00 | 0.00 | 100 | 1016.5 |
| 20260830234507 | 24 | 187 | 0.0 | 0.0 | 0.00 | 0.00 | 0.00 | 100 | 1016.7 |
| 20260830233100 | 24 | 186 | 0.0 | 0.0 | 0.00 | 0.00 | 0.00 | 100 | 1016.7 |
| 20260830231558 | 24 | 186 | 0.0 | 0.0 | 0.00 | 0.00 | 0.00 | 100 | 1016.7 |
| 20260830230055 | 24 | 192 | 0.0 | 0.0 | 0.00 | 0.00 | 0.00 | 100 | 1016.4 |
| 20260830224546 | -17 | 0.0 | 0.0 | 0.00 | 0.00 | 0.00 | 1016.6 | ||
| 20260830223106 | -17 | 0.0 | 0.0 | 0.00 | 0.00 | 0.00 | 1017.2 | ||
| 20260830221538 | -17 | 0.0 | 0.0 | 0.00 | 0.00 | 0.00 | 1017.2 | ||
| 20260830220033 | -17 | 0.0 | 0.0 | 0.00 | 0.00 | 0.00 | 1017.0 | ||
| 20260830214533 | -17 | 0.0 | 0.0 | 0.00 | 0.00 | 0.00 | 1016.9 | ||
| 20260830213034 | -17 | 0.0 | 0.0 | 0.00 | 0.00 | 0.00 | 1016.9 | ||
| 20260830211520 | -17 | 0.0 | 0.0 | 0.00 | 0.00 | 0.00 | 1017.0 | ||
| 20260830210017 | -17 | 0.0 | 0.0 | 0.00 | 0.00 | 0.00 | 1017.0 | ||
| 20260830204511 | -17 | 0.0 | 0.0 | 0.00 | 0.00 | 0.00 | 1017.1 | ||
| 20260830203007 | -17 | 0.0 | 0.0 | 0.00 | 0.00 | 0.00 | 1016.9 | ||
| 20260830201506 | -17 | 0.0 | 0.0 | 0.00 | 0.00 | 0.00 | 1016.9 | ||
| 20260830200059 | -17 | 0.0 | 0.0 | 0.00 | 0.00 | 0.00 | 1017.3 | ||
| 20260830194604 | -17 | 0.0 | 0.0 | 0.00 | 0.00 | 0.00 | 1017.5 |